Time,TemperatureF,DewpointF,PressureIn,WindDirection,WindDirectionDegrees,WindSpeedMPH,WindSpeedGustMPH,Humidity,HourlyPrecipIn,Conditions,Clouds,dailyrainin,SoftwareType,DateUTC
2013-06-04 00:00:00,51.4,46.8,29.75,NE,42,0.0,0.0,84,0.00,CLR,,0.00,WeatherDisplay:10.37,2013-06-04 08:00:00,
2013-06-04 00:05:00,51.1,46.1,29.75,NE,51,0.0,0.0,83,0.00,CLR,,0.00,WeatherDisplay:10.37,2013-06-04 08:05:00,
2013-06-04 00:10:00,50.7,46.4,29.75,NE,45,0.0,0.0,85,0.00,CLR,,0.00,WeatherDisplay:10.37,2013-06-04 08:10:00,
2013-06-04 00:15:00,50.5,46.2,29.74,NE,37,0.0,0.0,85,0.00,CLR,,0.00,WeatherDisplay:10.37,2013-06-04 08:15:00,
2013-06-04 00:25:00,50.2,46.8,29.74,NE,42,0.0,0.0,88,0.00,CLR,,0.00,WeatherDisplay:10.37,2013-06-04 08:25:00,
2013-06-04 00:30:00,50.0,45.6,29.74,NNE,24,0.0,0.0,85,0.00,CLR,,0.00,WeatherDisplay:10.37,2013-06-04 08:30:00,
2013-06-04 00:40:00,49.7,45.4,29.74,NNE,17,0.0,0.0,85,0.00,CLR,,0.00,WeatherDisplay:10.37,2013-06-04 08:40:00,
2013-06-04 00:45:00,49.6,45.6,29.74,NE,38,0.0,0.0,86,0.00,CLR,,0.00,WeatherDisplay:10.37,2013-06-04 08:45:00,
2013-06-04 00:55:00,49.6,45.6,29.74,NE,40,0.0,0.0,86,0.01,RA,,0.01,WeatherDisplay:10.37,2013-06-04 08:55:00,
2013-06-04 01:00:00,49.6,45.6,29.74,NE,34,0.0,0.0,86,0.00,,,0.01,WeatherDisplay:10.37,2013-06-04 09:00:00,
2013-06-04 01:15:00,49.6,45.6,29.74,North,9,0.0,0.0,86,0.00,RA,,0.01,WeatherDisplay:10.37,2013-06-04 09:15:00,
2013-06-04 01:25:00,49.3,45.3,29.74,North,360,0.0,0.0,86,0.00,CLR,,0.01,WeatherDisplay:10.37,2013-06-04 09:25:00,
2013-06-04 01:30:00,49.2,45.5,29.73,North,360,0.0,0.0,87,0.00,CLR,,0.01,WeatherDisplay:10.37,2013-06-04 09:30:00,
2013-06-04 01:40:00,49.1,45.4,29.73,North,360,0.0,0.0,87,0.00,CLR,,0.01,WeatherDisplay:10.37,2013-06-04 09:40:00,
2013-06-04 01:45:00,48.9,44.9,29.73,North,360,0.0,0.0,86,0.00,CLR,,0.01,WeatherDisplay:10.37,2013-06-04 09:45:00,
2013-06-04 01:55:00,48.8,44.8,29.73,North,360,0.0,0.0,86,0.00,CLR,,0.01,WeatherDisplay:10.37,2013-06-04 09:55:00,
2013-06-04 02:00:00,48.7,44.7,29.73,North,360,0.0,0.0,86,0.00,CLR,,0.01,WeatherDisplay:10.37,2013-06-04 10:00:00,
2013-06-04 02:10:00,48.6,44.9,29.72,North,360,0.0,0.0,87,0.00,CLR,,0.01,WeatherDisplay:10.37,2013-06-04 10:10:00,
2013-06-04 02:15:00,48.4,44.7,29.72,North,360,0.0,0.0,87,0.00,CLR,,0.01,WeatherDisplay:10.37,2013-06-04 10:15:00,
2013-06-04 02:20:00,48.4,44.4,29.72,North,360,0.0,0.0,86,0.00,CLR,,0.01,WeatherDisplay:10.37,2013-06-04 10:20:00,
2013-06-04 02:25:00,48.0,44.0,29.72,North,360,0.0,0.0,86,0.00,CLR,,0.01,WeatherDisplay:10.37,2013-06-04 10:25:00,
2013-06-04 02:30:00,47.9,44.5,29.72,North,360,0.0,0.0,88,0.00,CLR,,0.01,WeatherDisplay:10.37,2013-06-04 10:30:00,
2013-06-04 02:40:00,47.3,43.6,29.72,North,360,0.0,0.0,87,0.00,CLR,,0.01,WeatherDisplay:10.37,2013-06-04 10:40:00,
2013-06-04 02:50:00,47.3,43.9,29.72,North,360,0.0,0.0,88,0.00,CLR,,0.01,WeatherDisplay:10.37,2013-06-04 10:50:00,
2013-06-04 02:55:00,47.1,44.3,29.72,North,360,0.0,0.0,90,0.00,CLR,,0.01,WeatherDisplay:10.37,2013-06-04 10:55:00,
2013-06-04 03:00:00,47.1,43.7,29.72,North,360,0.0,0.0,88,0.00,CLR,,0.01,WeatherDisplay:10.37,2013-06-04 11:00:00,
2013-06-04 03:10:00,47.2,44.4,29.72,North,360,0.0,0.0,90,0.00,CLR,,0.01,WeatherDisplay:10.37,2013-06-04 11:10:00,
2013-06-04 03:15:00,47.3,43.9,29.72,North,360,0.0,0.0,88,0.00,CLR,,0.01,WeatherDisplay:10.37,2013-06-04 11:15:00,
2013-06-04 03:20:00,47.3,44.2,29.72,North,360,0.0,0.0,89,0.00,CLR,,0.01,WeatherDisplay:10.37,2013-06-04 11:20:00,
2013-06-04 03:25:00,47.3,43.9,29.72,North,360,0.0,0.0,88,0.00,CLR,,0.01,WeatherDisplay:10.37,2013-06-04 11:25:00,
2013-06-04 03:30:00,47.3,43.9,29.72,North,360,0.0,0.0,88,0.00,CLR,,0.01,WeatherDisplay:10.37,2013-06-04 11:30:00,
2013-06-04 03:40:00,47.1,44.3,29.71,North,360,0.0,0.0,90,0.00,CLR,,0.01,WeatherDisplay:10.37,2013-06-04 11:40:00,
2013-06-04 03:45:00,47.1,43.7,29.71,North,360,0.0,0.0,88,0.00,CLR,,0.01,WeatherDisplay:10.37,2013-06-04 11:45:00,
2013-06-04 03:55:00,46.7,43.7,29.71,North,360,0.0,0.0,89,0.00,CLR,,0.01,WeatherDisplay:10.37,2013-06-04 11:55:00,
2013-06-04 04:00:00,46.6,43.2,29.71,North,360,0.0,0.0,88,0.00,CLR,,0.01,WeatherDisplay:10.37,2013-06-04 12:00:00,
2013-06-04 04:05:00,46.4,43.6,29.71,North,360,0.0,0.0,90,0.00,CLR,,0.01,WeatherDisplay:10.37,2013-06-04 12:05:00,
2013-06-04 04:10:00,46.2,42.6,29.71,North,360,0.0,0.0,87,0.00,CLR,,0.01,WeatherDisplay:10.37,2013-06-04 12:10:00,
2013-06-04 04:15:00,46.4,43.0,29.70,North,360,0.0,0.0,88,0.00,CLR,,0.01,WeatherDisplay:10.37,2013-06-04 12:15:00,
2013-06-04 04:20:00,46.6,43.2,29.71,North,360,0.0,0.0,88,0.00,CLR,,0.01,WeatherDisplay:10.37,2013-06-04 12:20:00,
2013-06-04 04:25:00,46.6,43.5,29.71,North,360,0.0,0.0,89,0.00,CLR,,0.01,WeatherDisplay:10.37,2013-06-04 12:25:00,
2013-06-04 04:30:00,46.4,43.6,29.70,North,360,0.0,0.0,90,0.00,CLR,,0.01,WeatherDisplay:10.37,2013-06-04 12:30:00,
2013-06-04 04:40:00,46.4,43.6,29.70,North,360,0.0,0.0,90,0.00,CLR,,0.01,WeatherDisplay:10.37,2013-06-04 12:40:00,
2013-06-04 04:45:00,46.6,43.5,29.70,North,360,0.0,0.0,89,0.00,CLR,,0.01,WeatherDisplay:10.37,2013-06-04 12:45:00,
2013-06-04 04:55:00,46.9,43.9,29.70,North,360,0.0,0.0,89,0.00,CLR,,0.01,WeatherDisplay:10.37,2013-06-04 12:55:00,
2013-06-04 05:00:00,47.1,43.7,29.70,North,360,0.0,0.0,88,0.00,CLR,,0.01,WeatherDisplay:10.37,2013-06-04 13:00:00,
2013-06-04 05:10:00,47.5,44.7,29.70,North,360,0.0,0.0,90,0.00,CLR,,0.01,WeatherDisplay:10.37,2013-06-04 13:10:00,
2013-06-04 05:15:00,47.7,44.6,29.70,North,360,0.0,0.0,89,0.00,CLR,,0.01,WeatherDisplay:10.37,2013-06-04 13:15:00,
2013-06-04 05:20:00,47.8,45.0,29.70,North,360,0.0,0.0,90,0.00,CLR,,0.01,WeatherDisplay:10.37,2013-06-04 13:20:00,
2013-06-04 05:25:00,47.8,45.0,29.69,North,360,0.0,0.0,90,0.00,CLR,,0.01,WeatherDisplay:10.37,2013-06-04 13:25:00,
2013-06-04 05:30:00,48.0,45.2,29.69,North,360,0.0,0.0,90,0.00,CLR,,0.01,WeatherDisplay:10.37,2013-06-04 13:30:00,
2013-06-04 05:40:00,47.8,45.0,29.69,North,360,0.0,0.0,90,0.00,CLR,,0.01,WeatherDisplay:10.37,2013-06-04 13:40:00,
2013-06-04 05:45:00,47.7,45.2,29.69,North,360,0.0,0.0,91,0.00,CLR,,0.01,WeatherDisplay:10.37,2013-06-04 13:45:00,
2013-06-04 05:55:00,47.5,44.7,29.69,North,360,0.0,0.0,90,0.00,CLR,,0.01,WeatherDisplay:10.37,2013-06-04 13:55:00,
2013-06-04 06:00:00,47.5,45.3,29.69,North,360,0.0,0.0,92,0.00,CLR,,0.01,WeatherDisplay:10.37,2013-06-04 14:00:00,
2013-06-04 06:05:00,47.7,45.2,29.69,North,360,0.0,0.0,91,0.00,CLR,,0.01,WeatherDisplay:10.37,2013-06-04 14:05:00,
2013-06-04 06:15:00,47.8,45.3,29.69,North,360,0.0,0.0,91,0.00,CLR,,0.01,WeatherDisplay:10.37,2013-06-04 14:15:00,
2013-06-04 06:20:00,48.0,45.8,29.69,North,360,0.0,0.0,92,0.00,CLR,,0.01,WeatherDisplay:10.37,2013-06-04 14:20:00,
2013-06-04 06:25:00,48.0,45.8,29.69,North,360,0.0,0.0,92,0.00,CLR,,0.01,WeatherDisplay:10.37,2013-06-04 14:25:00,
2013-06-04 06:30:00,48.2,46.3,29.69,North,360,0.0,0.0,93,0.00,CLR,,0.01,WeatherDisplay:10.37,2013-06-04 14:30:00,
2013-06-04 06:40:00,48.7,45.9,29.69,North,360,0.0,0.0,90,0.00,CLR,,0.01,WeatherDisplay:10.37,2013-06-04 14:40:00,
2013-06-04 06:45:00,48.7,45.9,29.69,North,360,0.0,0.0,90,0.00,CLR,,0.01,WeatherDisplay:10.37,2013-06-04 14:45:00,
2013-06-04 06:55:00,49.2,45.8,29.69,North,360,0.0,0.0,88,0.00,CLR,,0.01,WeatherDisplay:10.37,2013-06-04 14:55:00,
2013-06-04 07:00:00,49.3,46.2,29.69,North,360,0.0,0.0,89,0.00,CLR,,0.01,WeatherDisplay:10.37,2013-06-04 15:00:00,
2013-06-04 07:10:00,49.3,45.9,29.69,North,360,0.0,0.0,88,0.00,CLR,,0.01,WeatherDisplay:10.37,2013-06-04 15:10:00,
2013-06-04 07:15:00,49.5,46.1,29.69,North,360,0.0,0.0,88,0.00,CLR,,0.01,WeatherDisplay:10.37,2013-06-04 15:15:00,
2013-06-04 07:20:00,49.6,45.9,29.69,North,360,1.0,0.0,87,0.00,CLR,,0.01,WeatherDisplay:10.37,2013-06-04 15:20:00,
2013-06-04 07:25:00,49.6,46.2,29.69,North,360,1.0,0.0,88,0.00,CLR,,0.01,WeatherDisplay:10.37,2013-06-04 15:25:00,
2013-06-04 07:30:00,49.8,46.4,29.69,North,360,1.0,0.0,88,0.00,CLR,,0.01,WeatherDisplay:10.37,2013-06-04 15:30:00,
2013-06-04 07:40:00,50.2,46.5,29.69,North,360,0.0,0.0,87,0.00,CLR,,0.01,WeatherDisplay:10.37,2013-06-04 15:40:00,
2013-06-04 07:45:00,50.4,46.6,29.69,North,360,0.0,0.0,87,0.00,CLR,,0.01,WeatherDisplay:10.37,2013-06-04 15:45:00,
2013-06-04 07:50:00,50.6,46.3,29.68,North,360,1.0,0.0,85,0.00,CLR,,0.01,WeatherDisplay:10.37,2013-06-04 15:50:00,
2013-06-04 07:55:00,50.7,46.4,29.68,North,360,1.0,0.0,85,0.00,CLR,,0.01,WeatherDisplay:10.37,2013-06-04 15:55:00,
2013-06-04 08:00:00,50.7,46.7,29.68,North,360,1.0,0.0,86,0.00,CLR,,0.01,WeatherDisplay:10.37,2013-06-04 16:00:00,
2013-06-04 08:10:00,50.7,47.0,29.68,North,360,1.0,0.0,87,0.00,CLR,,0.01,WeatherDisplay:10.37,2013-06-04 16:10:00,
2013-06-04 08:15:00,50.9,46.9,29.68,North,360,2.0,0.0,86,0.00,CLR,,0.01,WeatherDisplay:10.37,2013-06-04 16:15:00,
2013-06-04 08:25:00,51.2,46.8,29.68,North,360,1.0,0.0,85,0.00,CLR,,0.01,WeatherDisplay:10.37,2013-06-04 16:25:00,
2013-06-04 08:30:00,51.2,46.8,29.68,North,360,2.0,0.0,85,0.00,CLR,,0.01,WeatherDisplay:10.37,2013-06-04 16:30:00,
2013-06-04 08:40:00,51.1,46.7,29.68,North,360,1.0,0.0,85,0.00,CLR,,0.01,WeatherDisplay:10.37,2013-06-04 16:40:00,
2013-06-04 08:45:00,50.9,46.6,29.68,North,360,2.0,0.0,85,0.00,CLR,,0.01,WeatherDisplay:10.37,2013-06-04 16:45:00,
2013-06-04 08:55:00,50.5,46.2,29.68,North,360,2.0,0.0,85,0.00,CLR,,0.01,WeatherDisplay:10.37,2013-06-04 16:55:00,
2013-06-04 09:05:00,50.5,46.2,29.68,North,360,1.0,0.0,85,0.00,CLR,,0.01,WeatherDisplay:10.37,2013-06-04 17:05:00,
2013-06-04 09:10:00,50.7,46.0,29.68,North,360,1.0,0.0,84,0.00,CLR,,0.01,WeatherDisplay:10.37,2013-06-04 17:10:00,
2013-06-04 09:15:00,50.6,46.2,29.68,North,360,2.0,0.0,85,0.00,CLR,,0.01,WeatherDisplay:10.37,2013-06-04 17:15:00,
2013-06-04 09:25:00,51.1,46.1,29.67,North,360,3.0,0.0,83,0.00,CLR,,0.01,WeatherDisplay:10.37,2013-06-04 17:25:00,
2013-06-04 09:30:00,51.4,46.1,29.67,North,360,2.0,0.0,82,0.00,CLR,,0.01,WeatherDisplay:10.37,2013-06-04 17:30:00,
2013-06-04 09:40:00,52.4,46.7,29.67,North,360,3.0,0.0,81,0.00,CLR,,0.01,WeatherDisplay:10.37,2013-06-04 17:40:00,
2013-06-04 09:45:00,52.9,46.9,29.67,North,360,2.0,0.0,80,0.00,CLR,,0.01,WeatherDisplay:10.37,2013-06-04 17:45:00,
2013-06-04 09:50:00,53.3,47.0,29.67,North,360,3.0,0.0,79,0.00,CLR,,0.01,WeatherDisplay:10.37,2013-06-04 17:50:00,
2013-06-04 09:55:00,53.4,46.7,29.67,North,360,3.0,0.0,78,0.00,CLR,,0.01,WeatherDisplay:10.37,2013-06-04 17:55:00,
2013-06-04 10:00:00,53.2,46.9,29.67,North,360,3.0,0.0,79,0.00,CLR,,0.01,WeatherDisplay:10.37,2013-06-04 18:00:00,
2013-06-04 10:05:00,52.9,46.2,29.67,North,360,5.0,0.0,78,0.00,CLR,,0.01,WeatherDisplay:10.37,2013-06-04 18:05:00,
2013-06-04 10:10:00,52.7,46.0,29.67,North,360,3.0,0.0,78,0.00,CLR,,0.01,WeatherDisplay:10.37,2013-06-04 18:10:00,
2013-06-04 10:15:00,52.4,46.0,29.67,North,360,3.0,0.0,79,0.00,CLR,,0.01,WeatherDisplay:10.37,2013-06-04 18:15:00,
2013-06-04 10:25:00,51.6,45.7,29.67,North,360,3.0,0.0,80,0.00,CLR,,0.01,WeatherDisplay:10.37,2013-06-04 18:25:00,
2013-06-04 10:30:00,51.8,45.5,29.67,North,360,3.0,0.0,79,0.00,CLR,,0.01,WeatherDisplay:10.37,2013-06-04 18:30:00,
2013-06-04 10:35:00,52.0,45.7,29.67,North,360,2.0,0.0,79,0.00,CLR,,0.01,WeatherDisplay:10.37,2013-06-04 18:35:00,
2013-06-04 10:40:00,52.5,45.9,29.67,North,360,3.0,0.0,78,0.00,CLR,,0.01,WeatherDisplay:10.37,2013-06-04 18:40:00,
2013-06-04 10:45:00,53.0,46.3,29.67,North,360,2.0,0.0,78,0.00,CLR,,0.01,WeatherDisplay:10.37,2013-06-04 18:45:00,
2013-06-04 10:55:00,54.1,47.1,29.67,North,360,2.0,0.0,77,0.00,CLR,,0.01,WeatherDisplay:10.37,2013-06-04 18:55:00,
2013-06-04 11:00:00,54.7,47.3,29.67,North,360,2.0,0.0,76,0.00,CLR,,0.01,WeatherDisplay:10.37,2013-06-04 19:00:00,
2013-06-04 11:10:00,55.5,47.7,29.67,North,360,3.0,0.0,75,0.00,CLR,,0.01,WeatherDisplay:10.37,2013-06-04 19:10:00,
2013-06-04 11:15:00,55.2,47.1,29.67,North,360,3.0,0.0,74,0.00,CLR,,0.01,WeatherDisplay:10.37,2013-06-04 19:15:00,
2013-06-04 11:20:00,55.4,47.2,29.67,North,360,3.0,0.0,74,0.00,CLR,,0.01,WeatherDisplay:10.37,2013-06-04 19:20:00,
2013-06-04 11:25:00,55.6,47.1,29.67,North,360,5.0,0.0,73,0.00,CLR,,0.01,WeatherDisplay:10.37,2013-06-04 19:25:00,
2013-06-04 11:30:00,55.6,47.1,29.67,North,360,3.0,0.0,73,0.00,CLR,,0.01,WeatherDisplay:10.37,2013-06-04 19:30:00,
2013-06-04 11:40:00,56.1,46.8,29.67,North,360,2.0,0.0,71,0.00,CLR,,0.01,WeatherDisplay:10.37,2013-06-04 19:40:00,
2013-06-04 11:45:00,56.7,47.7,29.67,North,360,3.0,0.0,72,0.00,CLR,,0.01,WeatherDisplay:10.37,2013-06-04 19:45:00,
2013-06-04 11:55:00,56.9,47.3,29.67,North,360,2.0,0.0,70,0.00,CLR,,0.01,WeatherDisplay:10.37,2013-06-04 19:55:00,
2013-06-04 12:00:00,56.8,46.8,29.67,North,360,5.0,0.0,69,0.00,CLR,,0.01,WeatherDisplay:10.37,2013-06-04 20:00:00,
2013-06-04 12:10:00,57.0,46.6,29.66,North,360,5.0,0.0,68,0.00,CLR,,0.01,WeatherDisplay:10.37,2013-06-04 20:10:00,
2013-06-04 12:15:00,57.0,46.6,29.67,North,360,3.0,0.0,68,0.00,CLR,,0.01,WeatherDisplay:10.37,2013-06-04 20:15:00,
2013-06-04 12:25:00,58.0,47.1,29.66,North,360,5.0,0.0,67,0.00,CLR,,0.01,WeatherDisplay:10.37,2013-06-04 20:25:00,
2013-06-04 12:30:00,57.7,47.2,29.66,North,360,6.0,0.0,68,0.00,CLR,,0.01,WeatherDisplay:10.37,2013-06-04 20:30:00,
2013-06-04 12:40:00,57.9,47.0,29.66,North,360,6.0,0.0,67,0.00,CLR,,0.01,WeatherDisplay:10.37,2013-06-04 20:40:00,
2013-06-04 12:45:00,58.0,46.7,29.66,North,360,5.0,0.0,66,0.00,CLR,,0.01,WeatherDisplay:10.37,2013-06-04 20:45:00,
2013-06-04 12:55:00,58.3,46.5,29.66,North,360,5.0,0.0,65,0.00,CLR,,0.01,WeatherDisplay:10.37,2013-06-04 20:55:00,
2013-06-04 13:00:00,58.3,46.9,29.66,North,360,5.0,0.0,66,0.00,CLR,,0.01,WeatherDisplay:10.37,2013-06-04 21:00:00,
2013-06-04 13:05:00,58.3,46.6,29.66,North,360,5.0,0.0,65,0.00,CLR,,0.01,WeatherDisplay:10.37,2013-06-04 21:05:00,
2013-06-04 13:10:00,58.4,46.7,29.66,North,360,3.0,0.0,65,0.00,CLR,,0.01,WeatherDisplay:10.37,2013-06-04 21:10:00,
2013-06-04 13:15:00,58.4,46.3,29.66,North,360,5.0,0.0,64,0.00,CLR,,0.01,WeatherDisplay:10.37,2013-06-04 21:15:00,
2013-06-04 13:20:00,58.6,46.4,29.66,North,360,3.0,0.0,64,0.00,CLR,,0.01,WeatherDisplay:10.37,2013-06-04 21:20:00,
2013-06-04 13:25:00,58.9,46.3,29.66,North,360,3.0,0.0,63,0.00,CLR,,0.01,WeatherDisplay:10.37,2013-06-04 21:25:00,
2013-06-04 13:30:00,59.3,46.7,29.65,North,360,6.0,0.0,63,0.00,CLR,,0.01,WeatherDisplay:10.37,2013-06-04 21:30:00,
2013-06-04 13:40:00,58.8,45.8,29.65,North,360,5.0,0.0,62,0.00,CLR,,0.01,WeatherDisplay:10.37,2013-06-04 21:40:00,
2013-06-04 13:45:00,58.6,45.7,29.65,North,360,3.0,0.0,62,0.00,CLR,,0.01,WeatherDisplay:10.37,2013-06-04 21:45:00,
2013-06-04 13:55:00,59.7,46.2,29.65,North,360,5.0,0.0,61,0.00,CLR,,0.01,WeatherDisplay:10.37,2013-06-04 21:55:00,
2013-06-04 14:00:00,58.4,46.3,29.65,North,360,6.0,0.0,64,0.00,CLR,,0.01,WeatherDisplay:10.37,2013-06-04 22:00:00,
2013-06-04 14:05:00,56.0,47.1,29.65,North,360,3.0,0.0,72,0.00,CLR,,0.01,WeatherDisplay:10.37,2013-06-04 22:05:00,
2013-06-04 14:10:00,54.9,46.4,29.65,North,360,2.0,0.0,73,0.00,CLR,,0.01,WeatherDisplay:10.37,2013-06-04 22:10:00,
2013-06-04 14:15:00,54.7,46.6,29.65,North,360,2.0,0.0,74,0.00,CLR,,0.01,WeatherDisplay:10.37,2013-06-04 22:15:00,
2013-06-04 14:25:00,54.4,46.3,29.65,North,360,1.0,0.0,74,0.00,CLR,,0.01,WeatherDisplay:10.37,2013-06-04 22:25:00,
2013-06-04 14:30:00,55.2,47.4,29.65,North,360,1.0,0.0,75,0.00,CLR,,0.01,WeatherDisplay:10.37,2013-06-04 22:30:00,
2013-06-04 14:40:00,57.4,48.8,29.65,North,360,1.0,0.0,73,0.00,CLR,,0.01,WeatherDisplay:10.37,2013-06-04 22:40:00,
2013-06-04 14:45:00,58.8,48.2,29.65,North,360,2.0,0.0,68,0.00,CLR,,0.01,WeatherDisplay:10.37,2013-06-04 22:45:00,
2013-06-04 14:50:00,59.1,47.3,29.65,North,360,1.0,0.0,65,0.00,CLR,,0.01,WeatherDisplay:10.37,2013-06-04 22:50:00,
2013-06-04 14:55:00,59.5,48.2,29.65,North,360,2.0,0.0,66,0.00,CLR,,0.01,WeatherDisplay:10.37,2013-06-04 22:55:00,
2013-06-04 15:00:00,60.1,47.0,29.65,North,360,3.0,0.0,62,0.00,CLR,,0.01,WeatherDisplay:10.37,2013-06-04 23:00:00,
2013-06-04 15:05:00,61.2,48.1,29.65,North,360,3.0,0.0,62,0.00,CLR,,0.01,WeatherDisplay:10.37,2013-06-04 23:05:00,
2013-06-04 15:10:00,61.5,48.4,29.64,North,360,3.0,0.0,62,0.00,CLR,,0.01,WeatherDisplay:10.37,2013-06-04 23:10:00,
2013-06-04 15:15:00,61.4,46.9,29.64,North,360,2.0,0.0,59,0.00,CLR,,0.01,WeatherDisplay:10.37,2013-06-04 23:15:00,
2013-06-04 15:25:00,60.1,46.1,29.64,North,360,2.0,0.0,60,0.00,CLR,,0.01,WeatherDisplay:10.37,2013-06-04 23:25:00,
2013-06-04 15:30:00,59.7,46.2,29.65,North,360,2.0,0.0,61,0.00,CLR,,0.01,WeatherDisplay:10.37,2013-06-04 23:30:00,
2013-06-04 15:40:00,60.4,46.5,29.65,North,360,2.0,0.0,60,0.00,CLR,,0.01,WeatherDisplay:10.37,2013-06-04 23:40:00,
2013-06-04 15:45:00,60.6,46.7,29.65,North,360,3.0,0.0,60,0.00,CLR,,0.01,WeatherDisplay:10.37,2013-06-04 23:45:00,
2013-06-04 15:55:00,60.1,46.6,29.65,North,360,3.0,0.0,61,0.00,CLR,,0.01,WeatherDisplay:10.37,2013-06-04 23:55:00,
2013-06-04 16:00:00,59.4,48.0,29.65,North,360,3.0,0.0,66,0.00,CLR,,0.01,WeatherDisplay:10.37,2013-06-05 00:00:00,
2013-06-04 16:05:00,58.6,47.7,29.65,North,360,5.0,0.0,67,0.00,CLR,,0.01,WeatherDisplay:10.37,2013-06-05 00:05:00,
2013-06-04 16:10:00,58.6,47.3,29.65,North,360,3.0,0.0,66,0.00,CLR,,0.01,WeatherDisplay:10.37,2013-06-05 00:10:00,
2013-06-04 16:15:00,58.6,46.9,29.65,North,360,3.0,0.0,65,0.00,CLR,,0.01,WeatherDisplay:10.37,2013-06-05 00:15:00,
2013-06-04 16:25:00,58.5,46.7,29.65,North,360,3.0,0.0,65,0.00,CLR,,0.01,WeatherDisplay:10.37,2013-06-05 00:25:00,
2013-06-04 16:30:00,58.8,46.2,29.65,North,360,3.0,0.0,63,0.00,CLR,,0.01,WeatherDisplay:10.37,2013-06-05 00:30:00,
2013-06-04 16:40:00,59.2,47.4,29.65,North,360,0.0,0.0,65,0.00,CLR,,0.01,WeatherDisplay:10.37,2013-06-05 00:40:00,
2013-06-04 16:45:00,59.4,46.8,29.65,North,360,1.0,0.0,63,0.00,CLR,,0.01,WeatherDisplay:10.37,2013-06-05 00:45:00,
2013-06-04 16:55:00,59.7,46.7,29.65,North,360,1.0,0.0,62,0.00,CLR,,0.01,WeatherDisplay:10.37,2013-06-05 00:55:00,
2013-06-04 17:00:00,59.9,46.8,29.65,North,360,0.0,0.0,62,0.00,CLR,,0.01,WeatherDisplay:10.37,2013-06-05 01:00:00,
2013-06-04 17:05:00,59.7,47.1,29.65,North,360,0.0,0.0,63,0.00,CLR,,0.01,WeatherDisplay:10.37,2013-06-05 01:05:00,
2013-06-04 17:15:00,59.5,46.1,29.65,North,360,0.0,0.0,61,0.00,CLR,,0.01,WeatherDisplay:10.37,2013-06-05 01:15:00,
2013-06-04 17:25:00,60.5,46.6,29.65,North,360,0.0,0.0,60,0.00,CLR,,0.01,WeatherDisplay:10.37,2013-06-05 01:25:00,
2013-06-04 17:35:00,61.0,46.5,29.65,North,360,0.0,0.0,59,0.00,CLR,,0.01,WeatherDisplay:10.37,2013-06-05 01:35:00,
2013-06-04 17:45:00,61.3,46.9,29.65,North,360,0.0,0.0,59,0.00,CLR,,0.01,WeatherDisplay:10.37,2013-06-05 01:45:00,
2013-06-04 17:55:00,61.3,47.3,29.65,North,360,0.0,0.0,60,0.00,CLR,,0.01,WeatherDisplay:10.37,2013-06-05 01:55:00,
2013-06-04 18:00:00,61.5,47.5,29.65,North,360,0.0,0.0,60,0.00,CLR,,0.01,WeatherDisplay:10.37,2013-06-05 02:00:00,
2013-06-04 18:10:00,61.2,47.2,29.65,North,360,0.0,0.0,60,0.00,CLR,,0.01,WeatherDisplay:10.37,2013-06-05 02:10:00,
2013-06-04 18:15:00,60.8,46.9,29.65,North,360,0.0,0.0,60,0.00,CLR,,0.01,WeatherDisplay:10.37,2013-06-05 02:15:00,
2013-06-04 18:20:00,60.6,46.7,29.65,North,360,0.0,0.0,60,0.00,CLR,,0.01,WeatherDisplay:10.37,2013-06-05 02:20:00,
2013-06-04 18:25:00,60.6,47.1,29.65,North,360,0.0,0.0,61,0.00,CLR,,0.01,WeatherDisplay:10.37,2013-06-05 02:25:00,
2013-06-04 18:30:00,60.3,46.8,29.65,North,360,0.0,0.0,61,0.00,CLR,,0.01,WeatherDisplay:10.37,2013-06-05 02:30:00,
2013-06-04 18:40:00,58.8,45.4,29.65,North,360,0.0,0.0,61,0.00,CLR,,0.01,WeatherDisplay:10.37,2013-06-05 02:40:00,
2013-06-04 18:45:00,57.6,46.7,29.66,North,360,2.0,0.0,67,0.00,CLR,,0.01,WeatherDisplay:10.37,2013-06-05 02:45:00,
2013-06-04 18:55:00,53.3,45.6,29.66,North,360,0.0,0.0,75,0.01,RA,,0.02,WeatherDisplay:10.37,2013-06-05 02:55:00,
2013-06-04 19:00:00,52.1,45.8,29.66,North,360,0.0,0.0,79,0.01,RA,,0.02,WeatherDisplay:10.37,2013-06-05 03:00:00,
2013-06-04 19:05:00,51.5,45.5,29.66,North,360,0.0,0.0,80,0.00,CLR,,0.02,WeatherDisplay:10.37,2013-06-05 03:05:00,
2013-06-04 19:10:00,51.1,45.1,29.66,North,360,0.0,0.0,80,0.00,CLR,,0.02,WeatherDisplay:10.37,2013-06-05 03:10:00,
2013-06-04 19:15:00,50.7,44.8,29.66,North,360,0.0,0.0,80,0.00,CLR,,0.02,WeatherDisplay:10.37,2013-06-05 03:15:00,
2013-06-04 19:25:00,50.7,45.4,29.66,North,360,0.0,0.0,82,0.00,CLR,,0.02,WeatherDisplay:10.37,2013-06-05 03:25:00,
2013-06-04 19:30:00,50.7,46.1,29.66,North,360,0.0,0.0,84,0.00,CLR,,0.02,WeatherDisplay:10.37,2013-06-05 03:30:00,
2013-06-04 19:40:00,50.9,45.6,29.66,North,360,0.0,0.0,82,0.00,CLR,,0.02,WeatherDisplay:10.37,2013-06-05 03:40:00,
2013-06-04 19:45:00,51.1,46.1,29.66,North,360,0.0,0.0,83,0.00,CLR,,0.02,WeatherDisplay:10.37,2013-06-05 03:45:00,
2013-06-04 19:55:00,51.1,45.8,29.66,North,360,0.0,0.0,82,0.00,CLR,,0.02,WeatherDisplay:10.37,2013-06-05 03:55:00,
2013-06-04 20:00:00,51.3,46.3,29.66,North,360,0.0,0.0,83,0.00,CLR,,0.02,WeatherDisplay:10.37,2013-06-05 04:00:00,
2013-06-04 20:05:00,51.3,45.3,29.66,North,360,0.0,0.0,80,0.00,CLR,,0.02,WeatherDisplay:10.37,2013-06-05 04:05:00,
2013-06-04 20:10:00,51.3,45.3,29.66,North,360,0.0,0.0,80,0.00,CLR,,0.02,WeatherDisplay:10.37,2013-06-05 04:10:00,
2013-06-04 20:15:00,51.3,45.0,29.66,North,360,0.0,0.0,79,0.00,CLR,,0.02,WeatherDisplay:10.37,2013-06-05 04:15:00,
2013-06-04 20:25:00,51.4,44.5,29.66,North,360,0.0,0.0,77,0.00,CLR,,0.02,WeatherDisplay:10.37,2013-06-05 04:25:00,
2013-06-04 20:30:00,51.4,44.5,29.66,North,360,0.0,0.0,77,0.00,CLR,,0.02,WeatherDisplay:10.37,2013-06-05 04:30:00,
2013-06-04 20:35:00,51.4,44.8,29.66,North,360,0.0,0.0,78,0.00,CLR,,0.02,WeatherDisplay:10.37,2013-06-05 04:35:00,
2013-06-04 20:40:00,51.4,44.5,29.67,North,360,0.0,0.0,77,0.00,CLR,,0.02,WeatherDisplay:10.37,2013-06-05 04:40:00,
2013-06-04 20:45:00,51.3,45.0,29.67,North,360,0.0,0.0,79,0.00,CLR,,0.02,WeatherDisplay:10.37,2013-06-05 04:45:00,
2013-06-04 20:55:00,50.7,44.8,29.67,North,360,0.0,0.0,80,0.00,CLR,,0.02,WeatherDisplay:10.37,2013-06-05 04:55:00,
2013-06-04 21:00:00,50.5,45.2,29.67,North,360,0.0,0.0,82,0.01,RA,,0.03,WeatherDisplay:10.37,2013-06-05 05:00:00,
2013-06-04 21:10:00,49.7,45.3,29.67,North,360,0.0,0.0,85,0.00,,,0.03,WeatherDisplay:10.37,2013-06-05 05:10:00,
2013-06-04 21:15:00,49.5,44.8,29.68,North,360,0.0,0.0,84,0.00,CLR,,0.03,WeatherDisplay:10.37,2013-06-05 05:15:00,
2013-06-04 21:25:00,49.2,45.5,29.67,North,360,0.0,0.0,87,0.00,CLR,,0.03,WeatherDisplay:10.37,2013-06-05 05:25:00,
2013-06-04 21:30:00,48.9,45.5,29.68,North,360,0.0,0.0,88,0.00,CLR,,0.03,WeatherDisplay:10.37,2013-06-05 05:30:00,
2013-06-04 21:35:00,48.7,45.3,29.68,North,360,2.0,0.0,88,0.01,RA,,0.04,WeatherDisplay:10.37,2013-06-05 05:35:00,
2013-06-04 21:40:00,48.6,44.9,29.68,North,360,0.0,0.0,87,0.01,RA,,0.04,WeatherDisplay:10.37,2013-06-05 05:40:00,
2013-06-04 21:45:00,48.4,44.7,29.68,North,360,0.0,0.0,87,0.00,CLR,,0.04,WeatherDisplay:10.37,2013-06-05 05:45:00,
2013-06-04 21:55:00,48.1,45.6,29.68,North,360,1.0,0.0,91,0.01,RA,,0.05,WeatherDisplay:10.37,2013-06-05 05:55:00,
2013-06-04 22:00:00,48.0,45.2,29.68,North,360,1.0,0.0,90,0.00,,,0.05,WeatherDisplay:10.37,2013-06-05 06:00:00,
2013-06-04 22:05:00,48.2,45.4,29.68,North,360,1.0,0.0,90,0.00,CLR,,0.05,WeatherDisplay:10.37,2013-06-05 06:05:00,
2013-06-04 22:10:00,48.2,45.4,29.68,North,360,0.0,0.0,90,0.00,CLR,,0.05,WeatherDisplay:10.37,2013-06-05 06:10:00,
2013-06-04 22:15:00,48.1,45.3,29.68,North,360,0.0,0.0,90,0.00,CLR,,0.05,WeatherDisplay:10.37,2013-06-05 06:15:00,
2013-06-04 22:25:00,48.4,46.2,29.68,North,360,0.0,0.0,92,0.00,CLR,,0.05,WeatherDisplay:10.37,2013-06-05 06:25:00,
2013-06-04 22:30:00,48.4,45.9,29.69,North,360,0.0,0.0,91,0.00,CLR,,0.05,WeatherDisplay:10.37,2013-06-05 06:30:00,
2013-06-04 22:40:00,48.2,45.7,29.69,North,360,0.0,0.0,91,0.00,CLR,,0.05,WeatherDisplay:10.37,2013-06-05 06:40:00,
2013-06-04 22:45:00,48.0,45.8,29.69,North,360,0.0,0.0,92,0.00,CLR,,0.05,WeatherDisplay:10.37,2013-06-05 06:45:00,
2013-06-04 22:55:00,47.9,45.4,29.69,North,360,0.0,0.0,91,0.00,CLR,,0.05,WeatherDisplay:10.37,2013-06-05 06:55:00,
2013-06-04 23:00:00,48.0,45.5,29.70,North,360,0.0,0.0,91,0.00,CLR,,0.05,WeatherDisplay:10.37,2013-06-05 07:00:00,
2013-06-04 23:05:00,47.8,45.3,29.70,North,360,1.0,0.0,91,0.00,CLR,,0.05,WeatherDisplay:10.37,2013-06-05 07:05:00,
2013-06-04 23:10:00,47.8,45.6,29.69,North,360,1.0,0.0,92,0.01,RA,,0.06,WeatherDisplay:10.37,2013-06-05 07:10:00,
2013-06-04 23:15:00,47.8,45.6,29.69,North,360,0.0,0.0,92,0.01,RA,,0.06,WeatherDisplay:10.37,2013-06-05 07:15:00,
2013-06-04 23:20:00,47.8,45.9,29.69,North,360,0.0,0.0,93,0.00,CLR,,0.06,WeatherDisplay:10.37,2013-06-05 07:20:00,
2013-06-04 23:25:00,47.8,46.2,29.70,North,360,0.0,0.0,94,0.00,CLR,,0.06,WeatherDisplay:10.37,2013-06-05 07:25:00,
2013-06-04 23:30:00,47.7,45.5,29.70,North,360,0.0,0.0,92,0.00,CLR,,0.06,WeatherDisplay:10.37,2013-06-05 07:30:00,
2013-06-04 23:40:00,47.7,45.7,29.70,North,360,0.0,0.0,93,0.00,CLR,,0.06,WeatherDisplay:10.37,2013-06-05 07:40:00,
2013-06-04 23:45:00,47.5,45.6,29.70,North,360,0.0,0.0,93,0.00,CLR,,0.06,WeatherDisplay:10.37,2013-06-05 07:45:00,
2013-06-04 23:50:00,47.5,45.6,29.70,North,360,1.0,0.0,93,0.00,CLR,,0.06,WeatherDisplay:10.37,2013-06-05 07:50:00,
2013-06-04 23:55:00,47.5,45.6,29.70,North,360,0.0,0.0,93,0.01,RA,,0.07,WeatherDisplay:10.37,2013-06-05 07:55:00,